Location: Melita
(38.4566°N, 122.6369°W)
Time: 10:50:42
(UTC+00:00)

Cosmos 1295 Rocket - Pass Details

Date: 24 January 2020
Orbit: 943 x 995 km, 82.9° (Epoch: 18 February)

Event Time Altitude Azimuth Distance (km) Brightness Sun altitude
Rises 13:27:12 0° 348° (NNW) 3,661 7.3 -22.4°
Reaches altitude 10° 13:29:45 10° 345° (NNW) 2,703 6.6 -22.0°
Maximum altitude 13:35:47 58° 268° (W) 1,098 4.4 -20.8°
Drops below altitude 10° 13:41:43 10° 190° (S) 2,659 6.8 -19.6°
Sets 13:44:13 0° 187° (S) 3,596 7.5 -19.2°
